Location: *
(50.2903°S, 172.5375°W)
Time: 11:17:38
(UTC+00:00)

Resurs 1-4 Rocket - Pass Details

Date: 29 February 2020
Orbit: 800 x 814 km, 98.6° (Epoch: 05 April)

Event Time Altitude Azimuth Distance (km) Brightness Sun altitude
Exits shadow 12:56:58 30° 236° (WSW) 1,428 3.4 -29.8°
Drops below altitude 10° 13:00:11 10° 208° (SSW) 2,418 5.0 -29.6°
Sets 13:02:42 0° 200° (SSW) 3,355 6.0 -29.5°
